Weather WX

World > North America > United States > Ohio

Senecaville, Ohio Regional Weather

Lat: 39.93N, Lon: 81.46W
Wx Zone: OHZ058
Warning FLW WEATHER ALERT - (More Info. Click Here) Warning
Feedback

Senecaville, OH Regional Weather

Expires:201906242000;;014068
ASUS41 KCLE 241912
RWRCLE
OHIO REGIONAL WEATHER ROUNDUP
NATIONAL WEATHER SERVICE WILMINGTON, OH
300 PM EDT MON JUN 24 2019

NOTE: "FAIR" INDICATES FEW OR NO CLOUDS BELOW 12,000 FEET WITH NO
SIGNIFICANT WEATHER AND/OR OBSTRUCTIONS TO VISIBILITY.


OHZ036-037-039>041-045>050-054>059-063>069-073>076-082>088-242000-
  CENTRAL AND SOUTHEAST OHIO
  
CITY           SKY/WX    TMP DP  RH WIND       PRES   REMARKS
COLUMBUS       CLOUDY    83  65  54 SW13      29.75F                  
OSU AIRPORT    CLOUDY    80  66  62 SW13      29.76S                  
BOLTON FIELD   CLOUDY    81  66  61 W12G17    29.77F                  
RICKENBACK AFB LGT RAIN  81  67  62 SW7       29.74F                  
NEWARK         FAIR      85  69  58 S8        29.75F                  
MARION         PTSUNNY   81  62  52 W12G21    29.75F                  
LANCASTER      FAIR      84  69  60 S8        29.75F                  
ZANESVILLE     FAIR      84  69  60 SW9       29.78F                  
NEW PHILLY     FAIR      83  68  60 VRB6      29.78F                  
$$
  

SKY/WX - Weather  TMP - Temperature  DP - Dew Point  RH - Relative Humidity
WIND - Wind Direction/Speed PRES - Barometric Pressure VSB - Visibility
WCI - Wind Chill Index E13G22 Wind - East Wind 13 mph/Gusts of 22 mph